Showing default

PODSAT, 43229

Orbit data source: Space-Track

PODSAT, 43229 is a payload satellite owned by DARPA (US) that was launched on Tue, 06 Mar 2018 UTC via an FALCON 9 launch vehicle from the Air Force Eastern Test Range (AFETR). Payload-class satellites include a variety of spacecraft equipped with specific instruments for various scientific and technological missions. These include communications satellites like Starlink; space stations such as the ISS; scientific satellites like the Hubble; Earth observation satellites from companies like Planet Labs, Umbra, and HawkEye 360; GPS; miniature CubeSats for education and research; and military/defense satellites.

Loading next visibility...
Identifier
43229, 2018-023B
Orbit
Active
Country
Flag of USUS
Related business
Manufacturer
NovaWurks
Mission
Operational Defense Technology
Bus & Motor
SIMPL, Unknown motor
Mass
~90 kg wet, ~90 kg dry
Launch date (UTC)
2018-03-06 (8 years ago)
Launch vehicle
FALCON 9
Launch site
Air Force Eastern Test Range (AFETR)
Object type
Payload
Rocket body
Debris
Shape & HBR
Box, 0.1 m
Radar Cross Section
0.135 m², Medium (>0.1 m² and < 1m²)

Expand to show TLE details & history
Last TLE update: 11 hours ago

TLE from 11 hours ago
0 PODSAT
1 43229U 18023B   25258.42051103  .00082997  00000-0  91018-3 0  9999
2 43229  26.8439   5.6098 3729260 189.2888 161.3018  8.07634417169854
Epoch: 2025-09-15T10:05Z
TLE epoch observation values (Epoch: 2025-09-15T10:05:32.153Z)
Latitude
-0.00001°
Longitude
-140.39962°
Altitude
7,915.863 km
Speed
4.219 km/s
True Right ascension
00h 22m 26s
True Declination
0° 00' 00"
Sunlit
Object was in full shadow at epoch
Visualization orbit readout
Latitude
Unknown
Longitude
Unknown
Altitude
Unknown
Speed
Unknown
Apparent Right ascension
Unknown
Apparent Declination
Unknown
Sunlit
N/A
Visualization observer readout
Local Sidereal Time
13:25:22
Azimuth
Unknown
Elevation
Unknown
Doppler factor
Unknown
Orbital elements
Apogee altitude
8,033.843 km
Perigee altitude
204.43 km
Semi-major axis
10,497.273 km
Eccentricity
0.37293
Inclination
26.8439°
RAAN
5.6098°
Arg. of periapsis
189.2888°
True anomaly
170.74832°
Mean anomaly
161.3018°
Eccentric anomaly
166.34576°
Mean motion
2.01803 °/min
Orbital period
178.39 mins
BSTAR
0.00091018
Loading maneuver chart data...
Computing Atmospheric mass density...
Loading historical data...
Loading historical data...
Loading historical data...
Loading historical data...
Loading historical data...
Loading historical data...
Loading historical data...
Other satellites on launch #23 in the year 2018 (2018-03-06 UTC)

Documentation

Showing up to 5 results
|